GFSSE_con_mlcape_021.txt.gz
CAPE
3 10 16 0 0 0 0 0 0 0 0 0 0 0 0 0 0 0 0 0 0 0 0 0 0 0 0 0 0 0 0 0 0 0 0 79 305 679 407 475 702 861 496
0 45 1 0 0 0 0 0 0 0 0 0 0 0 0 0 0 0 0 0 0 0 0 0 0 0 0 0 0 0 0 0 0 0 0 0 0 266 380 270 610 757 513
0 0 0 0 0 0 0 0 0 0 0 0 0 0 0 0 0 0 0 0 0 0 0 0 0 0 0 0 0 0 0 0 0 0 0 0 0 0 451 239 273 525 458
3 0 0 0 0 0 0 0 0 0 0 0 0 0 0 0 0 0 0 0 0 0 0 0 0 0 0 0 0 0 0 0 0 0 0 0 0 0 0 167 248 312 489
24 4 0 0 0 0 0 0 0 0 0 0 0 0 0 0 0 0 0 0 0 0 0 0 6 0 0 108 31 5 0 0 0 0 0 0 0 0 139 378 329 293 376
53 0 0 0 0 0 0 0 0 0 0 0 0 0 0 0 0 0 0 0 0 0 6 70 89 92 66 58 142 115 109 14 0 0 0 0 0 89 257 203 373 309 308
32 0 0 0 0 0 0 0 0 0 0 0 0 0 0 0 0 1 5 20 24 86 176 238 317 329 274 185 203 53 60 104 140 1 0 0 0 107 66 0 0 239 394
19 4 41 0 0 0 0 0 0 0 0 0 0 0 0 0 0 13 42 104 226 371 447 397 371 385 314 238 204 153 80 56 29 31 30 8 37 72 30 0 0 36 430
27 39 204 32 0 0 0 0 0 0 0 0 5 7 14 10 0 28 74 219 530 489 474 259 169 106 155 295 345 333 163 137 37 0 5 5 88 81 78 6 0 0 408
109 180 246 274 85 0 0 3 0 0 0 5 24 31 55 60 54 62 45 282 507 343 132 10 12 9 24 110 298 387 271 247 136 18 0 11 160 160 74 15 15 70 529
20 253 330 333 249 100 0 58 10 3 26 100 74 70 155 130 87 29 242 487 551 358 151 57 69 5 0 12 100 237 369 177 101 18 0 0 166 185 87 11 6 121 552
0 155 276 344 279 286 159 99 81 73 200 327 216 178 212 125 47 91 365 683 672 462 287 148 57 0 0 0 0 46 85 79 68 4 0 26 87 213 142 28 14 123 504
0 0 396 393 372 409 363 404 309 128 182 411 269 195 205 105 155 315 307 423 389 405 134 130 43 4 0 0 0 0 46 34 21 0 0 0 69 110 289 87 16 15 402
0 0 171 515 589 589 473 390 426 208 214 259 231 205 267 312 500 553 327 339 327 230 134 21 52 37 5 49 87 34 70 38 90 42 0 85 154 121 132 124 34 22 35
0 0 6 513 974 845 546 566 665 576 522 414 283 333 454 569 626 389 206 272 389 257 188 138 119 103 95 125 125 45 41 42 109 57 34 61 59 27 141 139 59 46 1
0 0 0 347 926 967 767 660 698 718 690 616 738 676 699 652 582 409 452 612 412 279 159 113 107 22 4 16 30 40 50 5 41 49 156 171 33 20 20 73 45 54 56
0 0 0 280 675 890 869 658 801 930 915 923 820 961 954 840 650 475 564 518 475 387 330 169 81 80 76 9 0 5 27 17 29 56 88 119 81 37 19 6 1 3 97
0 0 0 387 609 780 964 1132 903 1103 1081 996 813 1010 943 740 496 524 533 457 454 477 379 290 163 21 5 23 28 20 7 22 22 38 51 62 81 68 41 15 0 0 119
0 0 57 349 532 911 1043 1289 1491 1173 957 768 431 381 590 407 524 567 577 555 401 546 543 396 259 120 7 15 24 31 7 23 28 32 16 63 97 87 62 50 0 0 70
0 0 57 321 874 1352 1631 1407 1383 1371 991 573 421 296 311 444 493 595 635 607 543 626 509 309 197 104 77 28 26 11 18 23 24 16 45 63 60 48 71 54 0 0 0
31 14 225 533 1246 1705 1801 1695 1430 1287 967 718 276 335 415 492 686 745 449 422 588 441 379 287 170 137 80 60 27 11 8 13 0 14 40 22 28 17 5 92 95 43 0
12 289 751 1252 1605 1925 1835 1738 1386 1129 665 486 330 300 396 471 477 435 322 307 382 312 299 176 95 89 84 40 36 17 8 8 0 25 41 31 53 25 27 59 156 50 0
137 451 845 1571 1838 2039 1857 1667 1354 811 553 485 253 301 373 435 538 532 374 292 237 195 141 171 178 143 70 18 18 8 4 0 1 2 23 36 32 15 42 124 158 136 245
386 685 951 1986 2083 1978 1734 1438 1118 678 492 333 313 407 526 438 418 225 239 191 136 226 212 225 183 156 98 37 30 45 28 48 15 0 5 24 96 68 54 119 99 144 341
591 689 1041 1698 1864 1668 1353 1036 701 369 397 252 318 317 473 323 230 181 160 148 115 87 128 96 152 141 133 58 69 68 21 5 20 11 0 16 38 52 67 84 91 109 416
762 992 1491 1638 1462 1106 884 504 228 172 251 274 245 232 268 248 289 290 183 44 6 35 166 209 179 157 125 104 92 90 77 0 8 5 11 1 24 56 41 101 61 157 243

GFSSE_con_mlcape_024.txt.gz
CAPE
1 0 6 0 0 0 0 0 0 0 0 0 0 0 0 0 0 0 0 0 0 0 0 0 0 0 0 0 0 0 0 0 0 0 0 0 145 354 281 283 343 253 823
0 0 0 0 0 0 0 0 0 0 0 0 0 0 0 0 0 0 0 0 0 0 0 0 0 0 0 0 0 0 0 0 0 0 0 0 0 7 264 353 371 313 626
0 0 7 0 0 0 0 0 0 0 0 0 0 0 0 0 0 0 0 0 0 0 0 0 0 0 0 0 0 0 0 0 0 0 0 0 0 0 0 272 415 466 196
0 0 0 0 0 0 0 0 0 0 0 0 0 0 0 0 0 0 0 0 0 0 0 0 0 0 0 0 0 0 0 0 0 0 0 0 0 0 0 232 279 457 338
0 0 0 0 0 0 0 0 0 0 0 0 0 0 0 0 0 0 0 0 0 0 0 0 0 0 0 9 43 20 16 1 0 0 0 0 0 0 214 105 347 380 454
0 0 0 0 0 0 0 0 0 0 0 0 0 0 0 0 0 0 0 0 0 0 11 40 47 45 47 18 111 228 182 94 46 0 0 0 0 0 604 592 495 467 371
0 0 0 0 0 0 0 0 0 0 0 0 0 0 0 0 0 0 0 0 0 0 37 103 157 252 285 254 190 242 137 103 200 95 1 0 0 0 437 358 331 349 365
0 0 0 0 0 0 0 0 0 0 0 0 0 0 0 14 14 20 19 30 48 121 226 332 456 316 261 199 232 289 217 169 79 71 67 16 21 228 218 63 107 98 405
0 0 0 0 0 0 0 0 0 0 0 0 0 0 7 23 30 34 29 62 150 331 434 500 318 193 174 169 242 371 366 269 142 14 1 28 43 426 147 22 3 1 71
8 11 72 0 0 0 0 0 0 0 0 0 0 0 20 32 41 43 39 85 273 483 328 277 170 70 58 50 141 362 496 430 325 87 0 0 43 467 316 100 146 101 253
107 107 154 131 0 0 0 0 0 0 0 0 0 2 47 60 71 62 72 128 364 539 355 231 148 68 60 27 23 148 303 378 242 113 22 0 3 405 320 98 77 13 227
13 130 255 280 100 0 0 0 65 17 21 35 33 30 77 65 53 80 58 327 486 717 563 346 214 169 60 0 0 21 79 164 194 93 9 6 62 253 250 33 1 10 18
0 2 177 259 287 148 0 0 110 15 1 78 97 54 130 91 87 85 68 315 638 913 656 512 276 191 0 0 0 0 0 12 40 28 14 9 38 227 335 200 13 34 49
0 0 44 278 352 323 158 18 59 48 21 111 179 169 67 68 51 36 142 276 395 420 327 132 80 28 0 0 0 1 0 28 85 40 0 4 1 87 378 204 78 92 0
0 0 28 202 369 397 334 253 202 115 47 240 265 208 166 76 42 140 340 297 251 223 246 156 97 65 81 0 0 119 39 114 107 133 76 59 28 433 215 207 300 189 122
0 0 16 154 353 512 418 351 405 347 177 231 292 156 198 142 115 372 534 239 205 279 208 140 154 159 90 22 53 80 41 29 7 76 83 70 147 227 113 139 139 309 236
0 0 0 68 425 522 507 401 515 513 413 290 252 237 204 250 269 529 509 356 374 290 193 127 64 50 21 0 0 0 3 30 24 20 51 118 250 173 60 34 28 230 345
0 0 0 80 406 589 692 526 633 690 629 577 553 574 667 562 555 594 490 490 443 349 299 233 147 49 9 41 41 22 0 15 26 22 27 126 162 83 79 36 17 29 247
0 0 0 40 188 472 789 619 750 823 810 720 677 879 899 775 729 733 489 431 381 425 346 314 346 182 111 47 31 27 17 8 14 25 22 31 99 75 42 30 19 0 53
0 0 0 61 250 556 790 871 810 873 843 745 839 955 889 930 848 544 443 418 373 459 449 357 343 203 164 99 40 55 15 14 14 16 20 18 39 89 52 44 61 38 0
0 0 0 181 556 700 830 1182 1126 1035 889 790 753 722 755 775 403 388 401 441 460 511 558 290 216 164 114 73 48 26 5 14 19 13 10 6 37 47 45 50 41 51 0
0 0 4 137 563 909 1084 1239 1202 834 558 457 314 268 304 352 417 451 531 372 326 359 284 134 86 38 29 26 40 8 20 14 3 19 9 21 30 14 10 22 45 58 56
2 11 118 344 845 1350 1388 1221 990 757 455 383 257 279 279 291 414 403 240 192 194 137 40 2 9 2 6 3 11 1 8 2 0 3 15 15 41 26 31 50 45 72 80
0 432 867 1078 1399 1634 1576 1340 1147 942 851 489 317 207 363 393 380 316 205 110 46 1 19 33 24 18 15 0 7 16 5 9 16 0 0 2 16 21 13 19 79 68 142
312 816 1302 1498 1751 1689 1588 1323 1110 960 629 495 298 223 265 269 284 240 82 16 0 2 0 11 26 26 31 33 22 1 1 0 13 16 0 0 8 11 20 18 57 56 57
820 1323 1564 1804 1812 1604 1392 1109 1006 797 444 300 266 335 281 243 166 92 48 4 0 0 0 6 35 48 51 55 28 30 30 3 3 9 1 0 9 21 14 31 14 43 64

GFSSE_con_mlcape_030.txt.gz
CAPE
0 0 0 0 0 0 0 0 0 0 0 0 0 0 0 0 0 0 0 0 0 0 0 0 0 0 0 0 0 0 0 0 0 0 0 0 16 236 582 674 531 436 601
0 3 0 0 0 0 0 0 0 0 0 0 0 0 0 0 0 0 0 0 0 0 0 0 0 0 0 0 0 0 0 0 0 0 0 0 0 0 188 617 641 426 338
0 0 0 0 0 0 0 0 0 0 0 0 0 0 0 0 0 0 0 0 0 0 0 0 0 0 0 0 0 0 0 0 0 0 0 0 0 0 0 641 646 383 252
0 0 0 0 0 0 0 0 0 0 0 0 0 0 0 0 0 0 0 0 0 0 0 0 0 0 0 0 0 0 0 0 0 0 0 0 0 0 0 0 739 676 256
0 1 0 0 0 0 0 0 0 0 0 0 0 0 0 0 0 0 0 0 0 0 0 0 0 0 0 0 0 0 0 0 0 0 0 0 0 0 0 20 393 855 609
1 5 0 0 0 0 0 0 0 0 0 0 0 0 0 0 0 0 0 0 0 0 0 0 0 0 0 0 0 13 276 162 116 31 0 0 0 0 27 274 510 765 684
0 0 0 0 0 0 0 0 0 0 0 0 0 0 0 0 0 0 0 0 16 28 31 58 107 130 139 204 248 198 238 318 227 66 38 23 1 23 105 655 393 674 624
0 1 0 0 0 0 0 0 0 0 0 0 0 0 0 0 0 0 0 8 34 60 70 100 147 235 339 368 297 297 368 437 296 76 3 21 18 66 276 847 713 700 686
0 1 0 0 5 0 19 0 0 0 0 0 0 0 0 0 0 0 0 19 50 81 98 183 367 505 500 376 318 267 275 399 437 223 74 6 0 95 419 723 349 235 257
0 0 0 0 3 0 40 9 0 0 0 0 0 0 0 0 0 0 6 44 84 154 248 405 490 580 513 340 213 176 199 199 328 330 165 95 28 71 355 731 447 207 238
26 2 0 0 11 24 8 66 76 8 5 0 0 0 1 5 0 7 27 37 104 221 371 529 531 530 369 214 170 145 106 69 122 211 237 243 255 148 254 658 543 210 193
50 64 15 2 3 39 44 24 92 60 83 49 50 60 30 0 0 1 36 45 68 261 513 694 591 503 370 139 31 8 18 13 33 100 175 234 317 336 274 425 698 395 291
2 57 76 30 25 31 35 14 16 90 48 76 67 69 80 17 16 76 13 96 74 245 512 873 831 658 246 111 24 0 0 0 0 0 4 106 218 341 352 357 484 306 139
0 0 39 84 58 31 34 11 0 41 37 17 68 87 9 2 0 24 0 1 22 106 457 574 616 548 233 99 32 5 0 0 0 0 0 113 317 392 276 588 578 410 180
0 0 0 7 24 44 39 27 10 22 27 14 73 86 50 4 0 0 2 0 0 13 264 467 487 370 169 48 15 12 0 0 2 29 60 178 258 408 274 704 731 521 399
0 0 0 0 1 56 44 63 57 17 62 46 63 70 109 10 0 0 0 0 0 1 224 306 285 210 116 54 35 23 21 7 50 118 179 27 160 239 237 471 627 789 473
0 0 0 0 0 0 18 65 55 48 84 59 78 125 139 65 0 0 0 0 0 0 201 128 142 126 97 62 95 57 17 19 62 46 45 36 39 191 173 143 456 676 513
0 0 0 0 0 0 11 92 97 93 114 132 142 168 161 104 7 0 0 0 0 4 181 82 147 161 135 110 132 49 7 21 37 23 32 44 24 66 138 165 235 277 250
0 0 0 0 0 0 3 125 200 219 200 189 203 221 202 155 77 19 0 0 0 116 156 123 126 137 207 152 137 81 62 75 70 44 32 49 28 82 186 223 187 169 185
0 0 0 0 0 0 7 139 223 306 348 332 303 280 281 248 170 73 19 0 5 294 183 126 192 116 143 122 41 28 34 46 45 16 45 25 13 35 109 80 210 153 66
0 0 0 0 0 0 24 85 245 365 416 432 423 414 386 308 214 154 87 31 185 281 242 159 157 138 69 0 0 0 0 1 10 8 0 12 21 47 50 38 60 36 33
0 0 0 0 0 0 74 161 356 396 347 421 569 568 511 379 266 248 202 152 271 199 184 128 100 17 0 0 0 0 0 2 16 16 5 9 24 26 53 58 65 47 41
0 0 0 0 0 0 107 287 331 330 305 470 620 711 573 520 495 410 327 392 255 187 226 131 37 0 0 0 0 0 0 0 0 16 17 13 21 27 27 22 15 51 52
0 0 0 0 0 0 86 235 352 408 478 584 710 689 631 578 559 459 436 292 193 203 85 15 0 0 0 0 0 0 0 0 0 2 11 3 16 19 9 5 15 37 44
0 0 0 0 6 66 233 403 521 535 437 513 712 784 508 401 429 318 245 192 136 10 0 0 0 0 0 0 0 0 0 0 0 11 10 15 21 10 7 4 7 28 53
0 0 0 37 191 382 547 497 542 603 622 677 552 433 290 131 255 189 199 145 6 0 0 0 0 0 0 0 0 0 0 4 16 9 13 6 3 13 12 18 25 42 69

GFSSE_con_mlcape_033.txt.gz
CAPE
0 2 2 0 0 0 0 0 0 0 0 0 0 14 16 3 0 0 0 0 0 0 0 0 0 0 0 0 0 0 0 0 0 0 0 0 36 284 724 653 579 711 534
0 77 0 0 0 0 0 0 0 0 0 0 0 0 0 0 0 0 0 0 0 0 0 0 0 0 0 0 0 0 0 0 0 0 0 0 0 0 239 822 774 719 519
0 14 0 0 0 0 0 0 0 0 0 0 0 0 0 0 0 0 0 0 0 0 0 0 0 0 0 0 0 0 0 0 0 0 0 0 0 0 0 615 887 695 544
4 4 1 0 0 0 0 0 0 0 0 0 0 0 0 0 0 0 0 0 0 0 0 0 0 0 0 0 0 0 0 0 0 0 0 0 0 0 0 15 485 758 525
14 18 16 0 0 0 0 0 0 0 0 0 0 0 0 0 0 0 0 0 0 0 0 0 0 0 0 0 0 0 0 0 0 0 0 0 0 0 0 68 316 1077 734
20 7 24 0 0 0 0 0 0 0 0 0 0 0 0 0 0 0 0 0 0 0 0 0 10 11 7 19 12 17 179 98 59 0 16 0 0 0 4 139 469 982 1027
2 12 7 8 0 0 0 0 0 0 0 0 0 0 0 0 0 0 0 0 0 9 15 38 61 62 90 169 214 212 153 218 115 56 0 88 0 0 89 343 470 615 779
47 98 82 174 3 0 0 0 0 0 0 0 0 0 0 0 0 0 0 0 7 42 87 123 181 195 235 369 380 365 350 380 219 162 40 12 0 7 168 770 723 703 802
165 122 57 180 130 14 23 3 0 0 0 0 0 0 0 0 0 0 0 9 30 58 94 152 197 316 451 457 330 321 221 247 218 197 239 39 0 4 212 782 581 677 677
147 112 9 43 280 83 128 183 0 0 0 0 0 0 0 0 0 0 0 25 48 83 132 211 342 552 614 464 300 212 216 194 48 204 282 184 30 27 218 575 792 485 322
47 28 15 5 100 134 119 225 138 35 9 12 25 6 9 8 16 13 9 30 50 163 271 376 486 626 682 423 213 117 108 16 0 0 12 156 209 205 236 379 782 512 355
51 26 13 12 39 116 79 134 298 183 92 115 112 116 90 117 106 20 57 34 95 249 392 552 677 684 528 312 155 44 45 40 0 0 0 192 258 290 311 368 571 745 414
0 74 73 69 95 94 155 194 169 229 176 222 193 232 248 236 161 134 99 140 151 237 482 648 777 704 602 416 242 113 41 1 0 20 16 17 67 112 289 413 496 732 443
0 0 11 85 107 138 150 154 137 129 164 113 180 291 260 223 170 162 117 141 292 183 491 811 847 962 912 580 346 179 110 94 55 78 148 46 164 321 448 397 446 737 437
0 0 0 0 5 67 148 157 152 144 158 117 126 270 265 161 201 192 184 147 154 256 285 756 874 974 942 680 336 203 175 198 249 287 338 189 249 335 458 550 609 892 790
0 0 0 0 0 9 35 104 140 155 184 183 142 217 312 191 225 158 148 103 5 1 120 561 868 887 861 545 358 295 283 338 374 503 531 550 137 237 444 423 892 975 861
0 0 0 0 0 0 7 23 113 154 151 200 193 236 279 296 278 74 77 111 15 6 6 270 619 584 599 528 427 474 458 485 419 553 610 505 370 148 256 323 555 775 847
0 0 0 0 0 0 0 6 95 184 167 204 241 232 297 353 282 160 44 41 26 0 16 129 524 415 572 617 594 572 497 462 494 518 522 475 473 386 320 219 220 486 698
0 0 0 0 0 0 0 33 130 187 171 232 270 279 364 365 287 160 97 16 3 34 58 277 556 457 664 703 695 605 593 542 514 524 450 514 502 450 488 416 174 169 149
0 0 0 0 0 0 0 72 267 340 271 292 340 383 382 347 312 333 207 87 104 71 69 487 590 574 652 769 486 360 372 442 524 548 544 464 377 470 657 553 429 237 138
0 0 0 0 0 0 0 22 129 241 471 473 473 485 447 509 525 437 287 249 126 111 181 664 544 646 661 330 261 180 197 315 458 468 453 371 361 372 599 499 444 443 264
0 0 0 0 0 0 0 51 308 514 500 538 535 658 719 690 660 556 387 269 140 212 529 559 594 312 279 149 217 10 38 267 322 404 367 355 332 374 341 456 62 274 431
0 0 0 0 0 0 1 222 384 461 280 484 640 650 721 687 683 542 492 317 260 658 712 512 531 309 491 19 1 93 58 69 179 244 225 130 139 224 389 494 211 194 569
0 0 0 0 0 0 30 193 272 403 297 570 545 681 697 780 706 543 489 474 658 643 437 445 592 270 250 117 0 4 0 35 23 134 231 90 28 157 144 198 322 315 368
0 0 0 0 0 0 87 288 483 568 745 855 882 848 874 914 813 644 673 797 811 364 379 562 313 89 44 46 26 21 24 83 51 82 65 10 26 154 231 36 27 244 581
0 0 0 0 2 71 191 327 558 641 671 855 1019 1026 984 897 860 774 752 708 622 351 370 188 150 123 15 26 44 55 64 96 156 108 35 6 0 66 51 55 149 403 547